Location: Le Rocchette
(44.3500°N, 7.8333°E)
Time: 10:28:36
(UTC+00:00)

X-37B - Visible Passes

Search period start: 19 June 2021 00:00
Search period end: 29 June 2021 00:00
Orbit: 386 x 389 km, 45.0° (Epoch: 10 June)

Date Brightness Start Highest point End Pass type
(mag) Time Alt. Az. Time Alt. Az. Time Alt. Az.
19 Jun 0.7 01:24:38 26° W 01:26:14 77° N 01:29:25 10° E visible
19 Jun 0.7 02:59:44 10° W 03:02:51 53° SSW 03:05:56 10° ESE visible
20 Jun 1.5 00:28:47 42° ENE 00:28:47 42° ENE 00:31:01 10° E visible
20 Jun 0.4 02:01:21 10° W 02:04:31 76° SSW 02:07:41 10° ESE visible
21 Jun 0.5 01:05:32 55° WNW 01:06:09 85° N 01:09:20 10° E visible
21 Jun 1.2 02:39:44 10° W 02:42:39 34° SSW 02:45:34 10° SE visible
22 Jun 3.3 00:10:41 12° E 00:10:41 12° E 00:10:56 10° E visible
22 Jun 0.6 01:43:04 29° W 01:44:23 52° SSW 01:47:29 10° ESE visible
22 Jun 2.7 19:55:43 10° SSE 19:56:41 11° SE 19:57:39 10° SE visible
22 Jun 1.9 21:29:42 10° SW 21:31:23 26° SW 21:31:23 26° SW visible
23 Jun 1.9 02:22:08 21° SW 02:22:24 21° SSW 02:24:51 10° SSE visible
23 Jun 1.4 20:31:41 10° SW 20:34:31 30° SSE 20:37:22 10° E visible
23 Jun 1.2 22:07:48 10° W 22:10:09 46° W 22:10:09 46° W visible
24 Jun 0.4 21:09:28 10° WSW 21:12:38 70° SSE 21:15:11 15° E visible
24 Jun 2.5 22:46:07 10° W 22:47:30 23° W 22:47:30 23° W visible
25 Jun 0.8 20:11:14 10° SW 20:14:19 48° SSE 20:17:23 10° E visible
25 Jun 0.6 21:47:43 10° W 21:50:55 78° N 21:51:53 41° ENE visible
26 Jun 0.5 20:49:20 10° W 20:52:31 89° NNW 20:55:43 10° E visible
26 Jun 1.5 22:26:02 10° W 22:28:18 43° WNW 22:28:18 43° WNW visible
27 Jun 0.5 19:51:00 10° WSW 19:54:10 71° SSE 19:57:20 10° E visible
27 Jun 0.7 21:27:39 10° W 21:30:49 77° N 21:32:17 29° E visible
27 Jun 3.4 23:04:20 10° W 23:04:33 11° W 23:04:33 11° W visible
28 Jun 0.7 20:29:15 10° W 20:32:26 78° N 20:35:37 10° E visible
28 Jun 1.0 22:05:56 10° W 22:08:29 52° W 22:08:29 52° W visible
